星链-5281 (STARLINK-5281 )

导读 | 星芒AI

STARLINK-5281 是 SpaceX Starlink 项目中的一颗低轨通信卫星,属于该星座的多个批次之一。该卫星旨在为全球用户提供高速互联网服务,尤其关注网络覆盖不足的地区。它运行在约 550 公里的轨道高度,采用先进的通信技术,支持高速数据传输和低延迟通信。STARLINK-5281 于发射后加入 Starlink 群体,与其他卫星协同工作,提升全球互联网接入能力,并推动 SpaceX 在商业航天和全球通信领域的布局。

基本信息
目录编号:
54190
目录名称:
STARLINK-5281
国际标识:
2022-141AK
轨道中心:
EARTH
卫星名称:
星链-5281
卫星全名:
星链-5281 (STARLINK-5281 )
卫星状态:
在轨 (已飞行1103 天)
发射日期:
2022-10-28 UTC
国别 :
美国 (US)
星等 :
--
轨道信息
数据来源 国际轨道数据
星历时间: 2025-11-04T17:54:32+0800
10小时前
查看轨道信息
半长轴: 6917.86km
偏心率: 0.0001464
轨道倾角: 53.217°
近地点辐角 90.461°
升交点赤经 196.626°
平近点角 269.655°
近地点: 538.712km
远地点: 540.738km
周期: 95.437分钟
每日圈数: 15.088467
详细信息
固有亮度:
5
最大亮度:
2.5
卫星平台:
Starlink v1.5
覆盖范围:
全球
运营商:
太空探索技术公司
运营商所在国:
美国
制造商(研发单位):
太空探索技术公司
制造商所在国:
美国
使用方式:
暂无
卫星简介
星链(Starlink)计划是由太空探索技术公司(SpaceX)提出的一个巨型低轨卫星互联网星座项目,计划在2019年至2024年间在太空搭建由约1.2万颗卫星组成的“星链”网络,其中1584颗将部署在地球上空550千米处的近地轨道,并从2020年开始工作。该卫星仍在工作。
2D轨道图
3D轨道图
轨道高度分析图
轨道倾角分析图
轨道综合分析图
查看轨道综合分析图